sat.trackr.live / text

‹ back to catalog

STARLINK-34958

NORAD 65237 · 2025-179C

PAYLOAD ACTIVE UNKNOWN

§ Identity

Operator
Country
US
Launch date
2025-08-18
Launch site
AFWTR
Launch vehicle
Mass (kg)
RCS (m²)

Purposes: comms

External: N2YO · Heavens-Above · Gunter

§ Orbital elements

Epoch: 2026-05-25T02:37:18.633216Z

Period
95.64 min
Inclination
97.4484°
Eccentricity
0.0002497
Mean motion
15.05657797 rev/d
Perigee alt
547.8 km
Apogee alt
551.2 km
Semi-major
6,927.6 km
B*
2.4493e-4
RAAN
187.8669°
Arg perigee
120.1928°
Mean anomaly
239.9547°
Rev number
4,346

§ Raw data

STARLINK-349581 65237U 25179C   26145.10924344  .00003478  00000+0  24493-3 0  99982 65237  97.4484 187.8669 0002497 120.1928 239.9547 15.05657797 43469

JSON: /api/v1/satellites/65237 · /tle

For live sub-satellite position, see the globe view (requires WebGL).

§ Visibility from observer

Set your observer location to see the next 7 days of passes ≥ 10°. The values pass through the URL so the page stays shareable.

No JS? Fill the form by hand. The geolocation button needs JavaScript.